COSMOS 1275 DEB, 42174

Orbit data source: Space-Track

COSMOS 1275 DEB, 42174 is space debris in LEO originally from a launch on Thu, 04 Jun 1981 UTC launched from the Plesetsk Missile And Space Complex (PKMTR). Debris objects in space refer to the collection of defunct objects orbiting the Earth. Examples of debris include non-operational satellites, rocket bodies, and fragments generated from explosions, collisions, or faulty payload assembly.

Loading next visibility...
COSMOS 1275 DEB details
Identifier
42174, 1981-053SN
Orbit
LEO
Last TLE update2 days ago
Origin
Flag of CISGUKOS (CIS)
ManufacturerUnknown
MissionSpacecraft
Bus & MotorUnknown
MassUnknown
Launch date (UTC)
1981-06-04 (43 years ago)
Launch vehicleUnknown
Launch site
Plesetsk Missile And Space Complex (PKMTR)
Object type
Payload
Rocket body
Debris
Shape & HBRUnknown
Radar Cross SectionSmall (<0.1 m²)

Expand to show TLE details & history

TLE from 2 days ago
0 COSMOS 1275 DEB
1 42174U 81053SN  24334.91671718  .00040628  00000-0  82553-2 0  9996
2 42174  82.7753 191.6816 0023748 105.6227 254.7600 14.60731222 37665
Epoch: 2024-11-29T22:00Z
Definitive object data (Epoch: 2024-11-29T22:00:04.364Z)
Latitude0.00003°
Longitude152.38666°
Altitude698.279 km
Speed7.505 km/s
True Right ascension12h 46m 43s
True Declination0° 00' 00"
Sunlit
Object was in daylight at TLE epoch
Visualization TLE readout
Latitude50.69126°
Longitude-38.58629°
Altitude683.942 km
Speed7.527 km/s
Apparent Right ascension20h 47m 37s
Apparent Declination11° 53' 40"
Sunlit
Object is in full shadow
Visualization observer readout
Local Sidereal Time05:53:36
Azimuth312.325° NW
Elevation-24.337°
Doppler factor1
Orbital elements
Apogee altitude704.632 km
Perigee altitude671.072 km
Semi-major axis7,065.989 km
Eccentricity0.0023748
Inclination82.7753°
RAAN191.6816°
Arg. of periapsis105.6227°
True anomaly254.49764°
Mean anomaly254.76°
Eccentric anomaly254.6288°
Mean motion3.65413 °/min
BSTAR0.0082553
Orbital period98.52 mins
Loading maneuver chart data...
Loading historical data...
Loading historical data...
Loading historical data...
Loading historical data...
Loading historical data...
Loading historical data...
Loading historical data...

COSMOS 1275 DEB Visibility forecast

Observer location: undefined°, undefined

Span
Click to sort rows by Start time (UTC) header in descending order
Start Az.
Max El. time (UTC)
Max El. Az.
Max El.
End time (UTC)
End Az.
6 mins2024-12-02 14:14:25.700Z135.058° SSE2024-12-02 14:17:25.700Z92.158° ESE21.008°2024-12-02 14:20:25.700Z44.446° NE
6 mins2024-12-02 15:54:25.700Z235.971° WSW2024-12-02 15:56:25.700Z274.054° WNW27.586°2024-12-02 16:00:25.700Z343.264° N
7 mins2024-12-03 02:12:25.700Z359.256° N2024-12-03 02:15:25.700Z112.016° ESE43.955°2024-12-03 02:19:25.700Z168.249° S
|